FENGYUN 1C DEB

Satellite information

Favourite Embed

Satellite Type and Status

DEBRISIN ORBIT

Key statistics

Satellite FENGYUN 1C DEB at a glance.

Uptime

9555

Days in orbit

Revolutions

≈ 14.1

Per day

Orbit

SSO

Sun Synchronous Orbit

Inclination

98.9

Latest

Satellite identification and parameters

Extended collection of information and parameters for FENGYUN 1C DEB.

Object identification

Identified? True

Debris? True

Object name: FENGYUN 1C DEB

International designator: 1999-025RL

Object number (NORAD): 30107

Object ID (CCSDS): 30107

Country: PEOPLES REPUBLIC OF CHINA (PRC)

Current information (Y/N): Y

RCS size: SMALL

Orbital parameters

Period: 101.813 minutes

Inclination: 98.8687 deg

SMA: 7222.652 km

Apoapsis: 936.657 km

Periapsis: 752.378 km

RAAN: 244.7871 deg

Eccentricy: 0.012757

Argument of periapsis: 11.4495 deg

Mean anomaly: 348.9533 deg

Mean motion: 14.14352651 rev/day

Mean motion (dot): 0.00000124 rev/day2

B* drag term: 0.0000817 1/REarth

Two-line elements (TLE)

Creation date: July 5, 2025, 5:45 p.m.

Reference frame: TEME

Reference center: EARTH

Epoch: July 5, 2025, 2:19 p.m. UTC

TLE line 0: 0 FENGYUN 1C DEB

TLE line 1: 1 30107U 99025RL 25186.59685934 .00000124 00000-0 81700-4 0 9994

TLE line 2: 2 30107 98.8687 244.7871 0127570 11.4495 348.9533 14.14352651952977

Live tracking on map

Real-time ground track for satellite FENGYUN 1C DEB.

In-orbit conjunctions

A list of the most updated potential collisions computed for object FENGYUN 1C DEB.

Target Orbit TCA Probability of collision Miss distance Type
SL-14 DEB LEO 2025-06-12 03:52:15 0.000101718 126.0 (m) DEBRIS
IRAS DEB SSO 2025-03-15 20:02:10 0.0001429667 336.0 (m) DEBRIS
COSMOS 2251 DEB LEO 2025-03-01 01:03:08 0.0003094224 62.0 (m) DEBRIS
METEOR 2-11 DEB LEO 2024-11-17 13:08:43 0.0001335094 711.0 (m) DEBRIS

Associated space launch

Chinese polar orbiting meteorological satellite

FENGYUN 1C DEB was lifted into orbit during the mission ‘Long March 4B | Feng Yun 1C’, on board a Long March 4B space rocket.

The launch took place on May 10, 1999, 1:33 a.m. from Launch Complex 7.

For more information about the launch, click the button.

Launch to space Long March 4B | Feng Yun 1C
Long March 4B | Feng Yun 1C

Agency: N/A

Status: Launch Successful

Launch date: May 10, 1999, 1:33 a.m. UTC

Rocket: Long March 4B

Launch pad: Launch Complex 7

Location: Taiyuan Satellite Launch Center, People's Republic of China

...

Latest news about this satellite

There are no fresh news available about this satellite. Check back as we update our databases every day.


Newsletter sign-up

Weekly statistics, charts and insights to help you stay on top of the space industry.